User: anonymous   Login
Location: Kailua
(21.4020°N, 157.7390°W)
Time: 15:51:41
(UTC-10:00)
Language:

Cosmos 2297 Rocket - Orbit

View from above orbital plane
View from above orbital plane
View from above satellite
View from above satellite

Ground track
Ground track

The orbit data is extracted from the following two-line orbital elements,

1 23405U 94077B   15179.86197280 -.00000251  00000-0 -10444-3 0  9991
2 23405 070.9836 287.7472 0004189 304.2986 055.7740 14.15155617 63744
Epoch (UTC): 28 June 2015 20:41:14
Eccentricity: 0.0004189
inclination: 70.9836°
perigee height: 839 km
apogee height: 845 km
right ascension of ascending node: 287.7472°
argument of perigee: 304.2986°
revolutions per day: 14.15155617
mean anomaly at epoch: 55.7740°
orbit number at epoch: 6374

The dashed part of the orbit path shows where the satellite is in the earth's shadow,  

DLR